• In Hungary
  • List of Countries
  • For 7 days
  • Water Temperature
  • Satellite Maps
  • Weather Map
  • News
  • Weather Widgets
  • user-avatar
    Login

    Hourly Weather Ptuj

    Today, 18 August, Saturday

    Time Temperature Precipitation Wind Pressure Humidity
    00:00 +21°C° 0 mm 1 mps 742 mmHg 71%
    01:00 +21°C° 0 mm 1 mps 742 mmHg 73%
    02:00 +20°C° 0 mm 1 mps 742 mmHg 75%
    03:00 +20°C° 0 mm 1 mps 742 mmHg 76%
    04:00 +20°C° 0 mm 1 mps 742 mmHg 78%
    05:00 +21°C° 0 mm 1 mps 743 mmHg 75%
    06:00 +22°C° 0 mm 1 mps 743 mmHg 72%
    07:00 +23°C° 0 mm 1 mps 743 mmHg 69%
    08:00 +25°C° 0 mm 1 mps 743 mmHg 61%
    09:00 +28°C° 0 mm 1 mps 743 mmHg 53%
    10:00 +30°C° 0 mm 1 mps 743 mmHg 46%
    11:00 +31°C° 0 mm 1 mps 743 mmHg 42%
    12:00 +32°C° 0 mm 2 mps 743 mmHg 38%
    13:00 +34°C° 0 mm 2 mps 743 mmHg 35%
    14:00 +34°C° 0 mm 2 mps 743 mmHg 35%
    15:00 +32°C° 0 mm 2 mps 743 mmHg 35%
    16:00 +32°C° 0 mm 2 mps 743 mmHg 36%
    17:00 +30°C° 0 mm 1 mps 743 mmHg 42%
    18:00 +28°C° 0 mm 1 mps 743 mmHg 49%
    19:00 +26°C° 0 mm 1 mps 743 mmHg 56%
    20:00 +25°C° 0 mm 1 mps 743 mmHg 57%
    21:00 +24°C° 0 mm 1 mps 743 mmHg 57%
    22:00 +24°C° 0 mm 1 mps 744 mmHg 58%
    23:00 +23°C° 0 mm 1 mps 744 mmHg 60%

    Tomorrow, 19 August, Sunday

    Time Temperature Precipitation Wind Pressure Humidity
    00:00 +22°C° 0 mm 1 mps 744 mmHg 61%
    01:00 +22°C° 0 mm 1 mps 744 mmHg 63%
    02:00 +21°C° 0 mm 1 mps 744 mmHg 64%
    03:00 +21°C° 0 mm 1 mps 744 mmHg 66%
    04:00 +21°C° 0 mm 1 mps 744 mmHg 67%
    05:00 +21°C° 0 mm 1 mps 744 mmHg 66%
    06:00 +22°C° 0 mm 1 mps 744 mmHg 64%
    07:00 +23°C° 0 mm 1 mps 745 mmHg 63%
    08:00 +26°C° 0 mm 1 mps 745 mmHg 56%
    09:00 +28°C° 0 mm 2 mps 745 mmHg 49%
    10:00 +30°C° 0 mm 2 mps 745 mmHg 42%
    11:00 +31°C° 0 mm 2 mps 745 mmHg 39%
    12:00 +32°C° 0 mm 2 mps 744 mmHg 35%
    13:00 +34°C° 0 mm 2 mps 744 mmHg 32%
    14:00 +34°C° 0 mm 2 mps 744 mmHg 33%
    15:00 +34°C° 0 mm 2 mps 743 mmHg 33%
    16:00 +33°C° 0 mm 1 mps 743 mmHg 34%
    17:00 +30°C° 0 mm 1 mps 743 mmHg 40%
    18:00 +28°C° 0 mm 1 mps 743 mmHg 47%
    19:00 +26°C° 0 mm 1 mps 743 mmHg 53%
    20:00 +25°C° 0 mm 1 mps 743 mmHg 54%
    21:00 +24°C° 0 mm 1 mps 743 mmHg 56%
    22:00 +23°C° 0 mm 1 mps 744 mmHg 57%
    23:00 +23°C° 0 mm 1 mps 743 mmHg 58%

    Day after tomorrow, 20 August, Monday

    Time Temperature Precipitation Wind Pressure Humidity
    00:00 +22°C° 0 mm 1 mps 743 mmHg 60%
    01:00 +22°C° 0 mm 1 mps 743 mmHg 62%
    02:00 +21°C° 0 mm 1 mps 743 mmHg 63%
    03:00 +21°C° 0 mm 1 mps 743 mmHg 64%
    04:00 +20°C° 0 mm 1 mps 743 mmHg 65%
    05:00 +21°C° 0 mm 1 mps 743 mmHg 64%
    06:00 +22°C° 0 mm 1 mps 743 mmHg 63%
    07:00 +23°C° 0 mm 1 mps 743 mmHg 62%
    08:00 +26°C° 0 mm 1 mps 743 mmHg 54%
    09:00 +29°C° 0 mm 1 mps 743 mmHg 47%
    10:00 +31°C° 0 mm 1 mps 743 mmHg 40%
    11:00 +32°C° 0 mm 1 mps 743 mmHg 37%
    12:00 +33°C° 0 mm 1 mps 743 mmHg 34%
    13:00 +34°C° 0 mm 1 mps 742 mmHg 31%
    14:00 +34°C° 0 mm 1 mps 742 mmHg 32%
    15:00 +34°C° 0 mm 1 mps 742 mmHg 32%
    16:00 +33°C° 0 mm 1 mps 742 mmHg 33%
    17:00 +31°C° 0 mm 1 mps 742 mmHg 39%
    18:00 +28°C° 0 mm 1 mps 742 mmHg 45%
    19:00 +24°C° 0 mm 0 mps 742 mmHg 51%
    20:00 +25°C° 0 mm 1 mps 742 mmHg 53%
    21:00 +25°C° 0 mm 1 mps 742 mmHg 54%
    22:00 +24°C° 0 mm 1 mps 742 mmHg 56%
    23:00 +24°C° 0 mm 1 mps 742 mmHg 59%

    21 August, Tuesday

    Time Temperature Precipitation Wind Pressure Humidity
    00:00 +23°C° 0 mm 1 mps 742 mmHg 61%
    01:00 +22°C° 0 mm 1 mps 742 mmHg 64%
    02:00 +22°C° 0 mm 1 mps 743 mmHg 66%
    03:00 +22°C° 0 mm 1 mps 743 mmHg 69%
    04:00 +21°C° 0 mm 1 mps 743 mmHg 71%
    05:00 +22°C° 0 mm 1 mps 743 mmHg 70%
    06:00 +23°C° 0 mm 1 mps 743 mmHg 69%
    07:00 +24°C° 0 mm 1 mps 744 mmHg 67%
    08:00 +26°C° 0.1 mm 2 mps 744 mmHg 61%
    09:00 +28°C° 0.1 mm 2 mps 744 mmHg 54%
    10:00 +30°C° 0.1 mm 3 mps 744 mmHg 48%
    11:00 +31°C° 0.3 mm 2 mps 744 mmHg 45%
    12:00 +32°C° 0.3 mm 2 mps 744 mmHg 43%
    13:00 +34°C° 0.3 mm 2 mps 743 mmHg 41%
    14:00 +34°C° 0.2 mm 2 mps 743 mmHg 41%
    15:00 +32°C° 0.2 mm 2 mps 743 mmHg 41%
    16:00 +32°C° 0.2 mm 2 mps 743 mmHg 42%
    17:00 +30°C° 0.1 mm 2 mps 743 mmHg 47%
    18:00 +28°C° 0.1 mm 2 mps 743 mmHg 53%
    19:00 +26°C° 0.1 mm 2 mps 743 mmHg 59%
    20:00 +25°C° 0.2 mm 2 mps 743 mmHg 62%
    21:00 +24°C° 0.2 mm 2 mps 744 mmHg 65%
    22:00 +23°C° 0.2 mm 2 mps 744 mmHg 67%
    23:00 +23°C° 0.1 mm 2 mps 744 mmHg 70%

    22 August, Wednesday

    Time Temperature Precipitation Wind Pressure Humidity
    00:00 +22°C° 0.1 mm 1 mps 744 mmHg 72%
    01:00 +21°C° 0.1 mm 1 mps 744 mmHg 75%
    02:00 +21°C° 0 mm 1 mps 744 mmHg 77%
    03:00 +20°C° 0 mm 1 mps 744 mmHg 79%
    04:00 +20°C° 0 mm 1 mps 744 mmHg 81%
    05:00 +21°C° 0 mm 1 mps 745 mmHg 78%
    06:00 +22°C° 0 mm 1 mps 745 mmHg 75%
    07:00 +23°C° 0 mm 1 mps 745 mmHg 73%
    08:00 +25°C° 0 mm 1 mps 745 mmHg 65%
    09:00 +27°C° 0 mm 2 mps 745 mmHg 57%
    10:00 +29°C° 0 mm 2 mps 745 mmHg 49%
    11:00 +30°C° 0 mm 2 mps 745 mmHg 46%
    12:00 +31°C° 0 mm 2 mps 744 mmHg 43%
    13:00 +32°C° 0 mm 1 mps 744 mmHg 41%
    14:00 +32°C° 0 mm 1 mps 744 mmHg 40%
    15:00 +32°C° 0 mm 1 mps 743 mmHg 40%
    16:00 +32°C° 0 mm 1 mps 743 mmHg 39%
    17:00 +30°C° 0 mm 1 mps 743 mmHg 45%
    18:00 +28°C° 0 mm 1 mps 743 mmHg 52%
    19:00 +26°C° 0 mm 1 mps 743 mmHg 58%
    20:00 +25°C° 0 mm 1 mps 743 mmHg 60%
    21:00 +24°C° 0 mm 1 mps 743 mmHg 61%
    22:00 +23°C° 0 mm 1 mps 743 mmHg 63%
    23:00 +23°C° 0 mm 1 mps 743 mmHg 65%

    23 August, Thursday

    Time Temperature Precipitation Wind Pressure Humidity
    00:00 +22°C° 0 mm 1 mps 743 mmHg 67%
    01:00 +22°C° 0 mm 1 mps 743 mmHg 69%
    02:00 +21°C° 0 mm 1 mps 743 mmHg 71%
    03:00 +21°C° 0 mm 1 mps 743 mmHg 72%
    04:00 +20°C° 0 mm 1 mps 743 mmHg 74%
    05:00 +21°C° 0 mm 1 mps 743 mmHg 71%
    06:00 +22°C° 0 mm 1 mps 743 mmHg 69%
    07:00 +23°C° 0 mm 1 mps 743 mmHg 67%
    08:00 +26°C° 0 mm 1 mps 743 mmHg 59%
    09:00 +28°C° 0 mm 1 mps 743 mmHg 52%
    10:00 +31°C° 0 mm 1 mps 743 mmHg 44%
    11:00 +32°C° 0 mm 1 mps 743 mmHg 41%
    12:00 +33°C° 0 mm 1 mps 742 mmHg 38%
    13:00 +34°C° 0 mm 1 mps 742 mmHg 35%
    14:00 +34°C° 0 mm 2 mps 742 mmHg 36%
    15:00 +34°C° 0 mm 2 mps 741 mmHg 38%
    16:00 +32°C° 0 mm 2 mps 741 mmHg 39%
    17:00 +30°C° 0 mm 1 mps 741 mmHg 45%
    18:00 +28°C° 0 mm 1 mps 741 mmHg 51%
    19:00 +26°C° 0 mm 1 mps 741 mmHg 56%
    20:00 +26°C° 0 mm 1 mps 741 mmHg 58%
    21:00 +25°C° 0 mm 1 mps 741 mmHg 60%
    22:00 +24°C° 0 mm 1 mps 741 mmHg 62%
    23:00 +24°C° 0 mm 1 mps 741 mmHg 63%
    Show more